Wind_Speed
53 53 51 50 49 48 47 47 46 44 43 42 41 40 40 39 38 37 36 36 35 34 34 33 34 34 34 35 35 36 36 37 38 38 38 39 39 40 40 41 42 42 43
52 52 52 51 50 50 49 48 47 46 46 45 44 43 42 41 40 39 38 37 37 37 36 36 36 36 36 37 37 38 38 39 40 40 41 40 39 40 41 42 43 43 44
50 50 50 50 50 50 50 50 49 48 47 47 46 45 44 43 42 41 39 39 39 39 38 38 38 38 38 39 39 40 40 40 41 42 43 42 41 41 41 42 43 44 44
47 48 49 49 49 49 50 49 49 49 49 48 47 46 45 44 42 42 41 41 40 40 40 40 40 41 41 41 41 42 42 42 42 43 43 44 44 44 43 42 43 43 43
45 46 48 48 49 49 49 49 49 49 49 48 48 47 46 45 44 43 42 42 42 42 42 42 42 42 42 42 42 43 43 44 44 44 44 44 44 45 45 44 43 43 44
44 45 45 47 48 49 49 49 49 49 49 49 49 48 47 46 45 44 43 43 43 43 43 43 43 43 43 43 43 44 44 44 45 44 44 44 44 44 45 44 43 43 44
44 45 45 45 46 48 49 49 49 49 49 49 49 49 48 47 46 45 45 45 44 44 43 44 44 44 44 44 44 44 45 45 45 44 44 44 45 44 44 44 43 44 44
44 45 45 46 47 47 49 49 49 49 49 48 48 47 47 47 46 46 45 45 45 45 45 45 45 45 45 44 44 45 45 45 44 44 44 44 44 44 43 43 43 43 43
43 44 45 46 47 48 48 49 49 49 49 49 48 48 47 47 47 46 46 46 46 46 46 46 46 46 45 45 44 45 44 44 43 43 43 43 43 42 43 43 43 43 43
40 42 44 46 47 47 48 48 48 49 49 49 49 49 49 48 48 48 48 48 47 47 46 46 45 44 44 44 44 44 43 42 42 42 43 42 42 42 42 42 43 43 42
38 40 42 44 46 47 47 48 48 49 49 49 49 49 49 49 49 48 48 48 47 47 46 45 44 44 44 43 43 42 42 41 41 42 41 41 41 41 41 41 41 41 41
36 38 39 41 43 45 46 47 47 48 48 48 48 48 49 49 49 48 48 47 47 45 44 43 43 43 43 42 41 41 41 41 41 41 41 40 40 40 40 40 40 40 40
34 36 37 38 40 41 42 44 45 46 46 46 47 47 47 47 47 47 46 45 44 43 42 42 42 42 41 40 40 40 40 40 40 39 39 39 39 39 39 39 39 39 39
32 33 35 36 37 38 39 40 41 43 44 44 45 45 45 45 45 45 44 43 43 42 42 41 40 40 39 39 39 39 39 39 38 38 38 38 38 38 38 38 38 38 38
31 32 34 35 36 37 38 38 39 40 41 41 42 42 42 42 43 43 42 42 42 41 40 40 39 38 38 38 38 38 37 37 37 37 37 37 37 37 37 37 37 37 37
30 31 32 33 35 36 36 37 38 38 39 40 40 40 40 40 40 41 41 40 40 40 39 38 37 37 37 37 36 35 35 35 36 36 35 36 36 35 36 36 36 37 36
30 30 30 31 32 33 35 36 36 37 37 38 38 39 39 39 39 39 39 39 38 38 37 37 36 36 36 35 34 34 34 34 34 34 35 35 35 35 35 35 35 36 36
28 28 29 30 31 31 32 33 34 34 35 36 36 37 37 37 37 37 37 37 36 36 36 36 35 34 34 33 33 33 33 33 33 33 34 34 34 34 34 34 35 35 35
27 27 27 28 29 30 31 31 32 33 33 33 33 34 34 34 34 34 34 34 34 34 34 34 33 32 32 32 32 32 32 32 32 33 33 33 33 33 34 34 35 35 36
27 27 27 27 27 28 29 29 30 30 31 31 31 32 32 32 32 32 32 32 32 31 31 31 31 30 30 30 30 31 31 31 31 32 32 32 32 33 34 34 35 36 37
25 25 25 26 26 26 26 27 27 28 28 28 29 29 30 30 30 30 30 30 29 29 29 29 29 29 29 29 29 30 30 30 30 31 31 32 33 33 34 35 36 37 38
25 24 24 25 25 25 25 26 26 26 27 27 28 28 28 28 28 28 28 28 28 28 28 28 28 28 28 28 29 29 29 29 30 30 31 32 33 34 35 36 37 38 39
24 24 24 24 24 25 25 25 26 26 26 26 27 27 26 26 26 26 26 27 27 27 27 27 27 27 28 28 28 28 28 29 30 31 31 33 34 35 36 37 38 39 40
23 23 24 24 24 23 24 24 25 25 25 25 25 25 25 25 25 26 26 26 26 26 27 27 27 27 27 27 28 28 29 30 31 31 32 33 35 36 37 38 39 39 41
22 23 23 23 23 23 23 23 24 24 24 25 25 25 25 25 25 25 25 26 26 26 27 27 27 27 27 27 28 29 30 31 32 32 33 35 36 37 38 39 39 40 41
23 23 24 24 24 24 24 24 24 24 25 25 25 25 25 25 25 25 26 26 26 27 27 27 27 27 28 28 29 31 31 32 33 34 35 36 37 38 39 40 40 41 42
Wind_Direction
230 231 231 231 231 232 232 233 233 236 238 241 244 247 250 253 256 258 261 265 268 271 273 275 278 282 284 285 287 288 290 291 291 293 294 295 296 297 296 297 297 297 297
230 232 233 233 233 233 233 233 234 235 238 240 243 246 249 252 255 258 261 264 267 269 272 274 277 279 281 283 285 287 288 289 291 292 292 293 294 295 296 297 297 297 297
232 232 232 233 234 234 235 235 236 236 238 239 242 244 247 250 253 257 259 262 265 268 271 273 276 278 280 282 284 285 287 289 290 292 293 293 293 293 295 296 297 297 297
233 233 233 234 235 235 236 236 237 238 239 240 242 244 246 249 252 255 258 260 264 267 270 272 275 277 279 281 283 285 287 288 290 291 292 293 294 295 295 296 296 297 297
233 234 234 235 235 236 236 237 238 239 240 241 243 245 247 249 251 254 257 260 263 266 269 272 275 277 279 281 283 285 287 288 289 291 292 293 294 296 296 296 297 297 298
233 234 235 235 236 237 237 238 239 240 241 243 244 246 248 250 252 254 257 260 263 266 269 272 274 276 278 280 283 284 286 287 289 290 291 293 294 295 296 297 298 298 299
233 234 234 235 236 237 237 239 240 241 242 244 245 247 249 251 253 255 258 260 263 266 268 271 274 276 279 280 282 284 285 287 289 290 291 293 294 295 296 298 299 299 300
234 234 235 236 237 237 238 239 241 242 242 244 245 247 249 251 253 254 257 260 263 266 269 271 274 277 278 280 282 284 285 287 289 290 291 293 294 295 297 298 299 300 300
235 236 236 237 238 239 240 240 242 243 244 245 246 247 249 251 253 255 258 261 263 266 269 272 274 276 277 279 282 284 286 287 288 290 291 293 294 295 297 298 298 300 300
236 237 238 239 239 241 242 242 243 244 245 246 247 249 250 252 254 256 259 262 264 266 269 272 273 275 277 280 282 284 285 287 288 290 292 292 293 295 296 297 299 300 300
237 237 238 240 241 242 243 243 244 245 246 248 249 250 251 253 255 257 260 262 264 266 268 270 272 275 277 280 282 283 285 287 288 290 291 292 293 294 296 297 298 299 300
241 241 241 242 243 244 244 245 245 246 248 249 250 252 253 254 256 258 260 262 265 267 268 270 272 274 277 279 281 283 285 286 288 290 291 292 293 294 296 297 298 299 300
241 242 243 243 244 245 246 247 247 248 249 250 251 253 253 255 257 258 260 262 264 266 268 271 273 275 276 278 280 282 284 287 288 289 290 292 293 294 295 296 297 299 300
241 242 243 244 245 246 247 248 249 250 250 251 252 253 254 255 256 258 260 262 264 266 268 270 272 275 276 278 280 282 285 287 288 289 290 291 293 294 295 296 297 299 300
243 244 244 245 246 247 248 250 251 252 252 253 253 254 255 256 257 258 260 261 263 265 267 269 272 274 276 278 280 282 284 286 287 289 290 291 293 293 295 296 298 299 301
245 245 245 246 247 248 249 250 251 252 253 253 254 255 256 257 257 258 259 261 263 265 267 269 272 274 276 278 280 282 284 286 288 289 290 291 292 293 295 296 298 299 301
247 247 246 247 248 249 249 250 251 252 254 254 254 255 256 257 257 258 260 260 262 264 266 269 271 273 276 277 279 281 284 286 287 288 290 291 292 293 295 296 298 299 300
249 249 249 249 249 250 251 251 251 252 253 254 254 255 256 256 257 258 259 260 262 263 266 268 271 273 274 277 279 281 283 285 286 288 290 291 293 294 295 297 298 300 301
249 249 250 250 250 251 252 252 252 252 252 252 253 254 255 256 256 257 258 259 261 263 265 267 269 271 273 276 278 279 282 284 286 288 290 292 292 294 295 297 299 301 301
249 249 250 250 251 252 252 252 252 252 252 252 253 253 254 255 255 256 257 258 260 261 263 265 267 270 273 275 276 279 282 285 287 289 290 291 293 295 297 299 300 301 302
248 248 249 250 250 251 252 252 252 253 253 253 253 253 253 254 254 254 256 257 258 260 262 264 267 269 272 274 276 279 283 285 287 289 290 292 294 296 298 300 301 302 303
247 248 249 250 251 251 252 253 254 254 254 254 253 253 253 253 253 253 255 256 257 259 262 264 267 269 272 274 277 280 283 285 287 289 291 293 295 297 299 300 302 303 304
247 247 249 250 252 253 254 255 256 256 255 255 253 253 252 252 252 252 254 256 257 260 262 265 267 270 272 275 278 281 283 285 288 290 292 294 296 298 300 301 302 303 304
247 248 250 251 254 255 256 256 256 256 255 254 253 252 252 252 253 254 256 257 259 260 263 266 268 270 272 275 278 281 284 286 288 291 293 295 297 298 300 302 303 304 305
250 251 252 253 255 257 257 257 257 256 256 254 253 253 254 254 254 255 257 258 260 262 265 267 269 271 274 276 279 282 285 287 289 291 293 295 297 299 301 303 304 305 306
253 253 254 254 256 256 257 257 258 258 256 255 254 255 255 255 255 257 259 260 262 264 266 267 270 272 275 278 281 283 286 288 290 292 295 297 298 300 302 303 304 305 306
Height
5766 5772 5778 5783 5788 5793 5797 5802 5806 5809 5813 5816 5819 5822 5824 5826 5828 5829 5830 5832 5833 5833 5833 5833 5833 5832 5832 5831 5830 5828 5827 5825 5823 5822 5820 5818 5816 5813 5810 5807 5805 5801 5798
5758 5764 5770 5775 5780 5785 5789 5794 5798 5801 5805 5808 5811 5814 5817 5819 5821 5822 5823 5824 5825 5826 5826 5826 5826 5825 5825 5824 5822 5821 5819 5818 5816 5814 5812 5811 5810 5806 5802 5799 5796 5793 5789
5751 5756 5761 5766 5771 5776 5781 5785 5789 5793 5796 5800 5803 5806 5809 5811 5813 5815 5816 5816 5817 5818 5818 5818 5818 5818 5817 5816 5815 5813 5812 5810 5808 5805 5803 5802 5801 5799 5796 5792 5788 5784 5780
5743 5748 5753 5758 5763 5768 5772 5776 5780 5784 5787 5791 5794 5797 5800 5803 5805 5806 5807 5808 5809 5810 5810 5810 5810 5810 5809 5808 5807 5805 5803 5801 5799 5797 5794 5792 5790 5788 5787 5785 5780 5775 5771
5735 5740 5745 5750 5754 5759 5763 5767 5771 5775 5779 5782 5785 5789 5791 5794 5796 5798 5799 5800 5801 5801 5802 5802 5801 5801 5800 5799 5798 5796 5794 5792 5790 5788 5785 5783 5780 5777 5775 5774 5771 5767 5762
5726 5731 5736 5741 5746 5750 5754 5758 5762 5766 5769 5773 5776 5779 5782 5785 5787 5789 5790 5791 5792 5792 5793 5793 5792 5792 5791 5790 5788 5787 5785 5783 5781 5778 5776 5773 5771 5768 5765 5763 5761 5757 5753
5717 5722 5727 5732 5736 5741 5745 5749 5753 5757 5760 5763 5767 5770 5773 5775 5778 5780 5781 5782 5783 5783 5783 5783 5783 5782 5781 5780 5779 5777 5775 5773 5771 5769 5766 5763 5761 5758 5755 5752 5750 5747 5743
5709 5714 5718 5722 5727 5731 5735 5739 5743 5747 5750 5754 5757 5760 5763 5765 5768 5770 5771 5772 5773 5774 5774 5774 5773 5773 5772 5771 5769 5768 5766 5763 5761 5759 5756 5754 5751 5748 5745 5742 5739 5736 5733
5701 5705 5709 5713 5717 5721 5725 5729 5733 5737 5741 5744 5747 5750 5753 5755 5758 5760 5761 5762 5763 5764 5764 5764 5763 5763 5762 5761 5759 5758 5756 5754 5751 5749 5747 5744 5741 5738 5735 5732 5728 5726 5722
5693 5696 5700 5704 5708 5712 5716 5720 5724 5727 5731 5734 5737 5740 5743 5745 5747 5749 5751 5752 5753 5753 5754 5753 5753 5752 5752 5750 5749 5747 5746 5744 5742 5739 5737 5734 5731 5728 5725 5722 5718 5715 5711
5685 5688 5691 5695 5699 5702 5706 5710 5713 5717 5720 5724 5727 5729 5732 5735 5737 5739 5740 5741 5742 5743 5743 5743 5743 5742 5741 5740 5739 5738 5736 5734 5732 5729 5727 5724 5721 5718 5715 5712 5708 5705 5701
5677 5680 5683 5686 5690 5693 5697 5700 5703 5707 5710 5713 5716 5719 5721 5724 5726 5728 5729 5731 5732 5732 5733 5733 5732 5732 5731 5730 5729 5728 5726 5724 5722 5720 5717 5715 5712 5709 5706 5702 5699 5695 5691
5670 5672 5675 5678 5681 5684 5687 5691 5694 5697 5700 5703 5706 5708 5711 5713 5715 5717 5719 5720 5721 5722 5722 5722 5722 5722 5721 5720 5719 5718 5716 5714 5712 5710 5708 5705 5702 5699 5696 5693 5689 5686 5682
5662 5665 5667 5670 5673 5676 5679 5682 5684 5687 5690 5693 5696 5698 5701 5703 5705 5707 5708 5710 5711 5712 5712 5712 5712 5712 5711 5711 5709 5708 5707 5705 5703 5701 5698 5695 5693 5690 5687 5683 5680 5677 5673
5656 5658 5660 5662 5665 5668 5670 5673 5676 5678 5681 5683 5686 5688 5691 5693 5695 5696 5698 5700 5701 5702 5702 5703 5703 5702 5702 5701 5700 5699 5697 5695 5693 5691 5689 5686 5684 5681 5678 5674 5671 5667 5664
5649 5651 5653 5655 5657 5660 5662 5665 5667 5669 5672 5674 5676 5679 5681 5683 5685 5687 5688 5690 5691 5692 5692 5693 5693 5693 5692 5692 5690 5689 5688 5686 5684 5682 5680 5677 5675 5672 5669 5665 5662 5659 5655
5642 5644 5646 5648 5650 5652 5654 5656 5659 5661 5663 5665 5667 5669 5671 5673 5675 5677 5678 5680 5681 5682 5683 5683 5683 5683 5683 5682 5681 5680 5679 5677 5675 5673 5671 5668 5666 5663 5660 5656 5653 5650 5646
5635 5637 5639 5641 5643 5645 5647 5649 5650 5652 5654 5656 5658 5660 5662 5664 5666 5668 5669 5670 5672 5673 5674 5674 5674 5674 5674 5673 5672 5671 5670 5668 5666 5664 5662 5659 5657 5654 5651 5648 5645 5641 5637
5629 5631 5632 5634 5636 5638 5639 5641 5643 5644 5646 5648 5650 5651 5653 5655 5657 5658 5660 5661 5663 5664 5665 5665 5666 5665 5665 5664 5664 5662 5661 5660 5658 5656 5653 5651 5648 5645 5642 5639 5636 5632 5628
5622 5624 5626 5628 5629 5631 5632 5634 5635 5637 5638 5640 5642 5643 5645 5647 5648 5650 5651 5653 5654 5655 5656 5656 5657 5657 5656 5656 5655 5654 5653 5651 5649 5647 5645 5642 5639 5637 5633 5630 5627 5623 5619
5616 5618 5620 5621 5623 5624 5626 5627 5628 5630 5631 5632 5634 5635 5637 5639 5640 5642 5643 5645 5646 5647 5647 5648 5648 5648 5648 5647 5647 5645 5644 5643 5641 5639 5636 5634 5631 5628 5625 5621 5618 5614 5610
5610 5612 5614 5615 5616 5618 5619 5620 5621 5623 5624 5625 5626 5628 5629 5631 5632 5634 5635 5637 5638 5639 5639 5640 5640 5640 5640 5639 5638 5637 5636 5634 5632 5630 5628 5625 5622 5619 5616 5612 5608 5604 5600
5605 5606 5608 5609 5610 5611 5613 5614 5615 5616 5617 5618 5619 5621 5622 5624 5625 5626 5628 5629 5630 5631 5632 5632 5632 5632 5631 5631 5630 5629 5627 5626 5624 5622 5619 5616 5613 5610 5606 5603 5599 5594 5590
5599 5600 5602 5603 5604 5605 5606 5607 5608 5609 5610 5611 5613 5614 5615 5617 5618 5619 5621 5622 5623 5623 5624 5624 5624 5624 5623 5623 5622 5621 5619 5617 5615 5613 5610 5607 5604 5601 5597 5593 5589 5584 5580
5593 5595 5596 5597 5598 5599 5600 5601 5602 5603 5604 5605 5606 5607 5609 5610 5611 5612 5613 5614 5615 5616 5616 5616 5616 5616 5615 5615 5614 5612 5611 5609 5606 5604 5601 5598 5595 5591 5587 5583 5579 5574 5569
5587 5589 5590 5591 5592 5593 5593 5594 5595 5596 5597 5598 5599 5600 5602 5603 5604 5605 5606 5607 5607 5608 5608 5608 5608 5608 5607 5606 5605 5604 5602 5600 5597 5595 5592 5589 5585 5581 5577 5573 5568 5564 5559